[[{"header":{"parameterUnit":"m.s-1","parameterCategory":1,"la1":30.2991,"la2":30.254,"lo1":-89.0895,"lo2":-89.0444,"dx":0.0017,"dy":0.0017,"nx":28,"ny":28,"refTime":"2023-01-12T15:00:00:Z","depth":0,"parameterNumber":2,"parameterNumberName":"U-component_of_WINDS"},"data":[0,0,0,0,0,0,0,0,0,0,0,0,0,0,0,0,0,0,0,0,0,0,0,0,0,0,0,0,0,0,0,0,0,0,0,0,0,0,0,0,0,0,0,0,0,0,0,0,0,0,0,0,0,0,0,0,0,0,4.2448,4.2448,0,4.2514,4.2515,4.2515,4.2506,4.2505,4.2504,4.2503,4.2573,4.2576,4.2579,0,0,0,0,0,0,0,0,0,0,0,0,0,4.2321,4.2323,4.2448,4.2448,4.2449,4.2514,4.2515,4.2516,4.2506,4.2505,4.2503,4.2502,4.2572,4.2575,4.2579,0,0,0,0,0,0,0,0,0,0,0,0,0,4.238,4.2324,4.2448,4.2452,4.2453,4.2514,4.2515,4.2516,4.2506,4.2505,4.2503,4.2501,4.2571,4.2575,4.2579,4.264,0,0,4.2593,4.2595,0,0,0,0,0,0,0,0,4.2377,4.2385,4.2451,4.2452,4.2453,4.25,4.2496,4.2557,4.2507,4.2486,4.2503,4.2501,4.255,4.2556,4.2572,4.2643,4.2646,4.2593,4.2596,4.2598,4.2599,0,0,0,0,0,0,0,4.2373,4.2382,4.2474,4.2452,4.2453,4.2454,4.246,4.2507,4.2527,4.2488,4.2487,4.2495,4.2551,4.2568,4.2574,4.2647,4.2593,4.2597,4.2599,4.2601,4.2779,4.2781,0,0,0,0,0,0,4.2367,4.2379,4.2472,4.2476,4.241,4.2457,4.2465,4.2487,4.2526,4.2531,4.2497,4.2495,4.2561,4.2569,4.2576,4.2654,4.2597,4.2602,4.2604,4.2777,4.2779,4.2781,0,0,0,0,0,0,4.2364,4.2375,4.2469,4.2427,4.2439,4.2461,4.2486,4.2489,4.2506,4.2533,4.2537,4.251,4.256,4.257,4.2626,4.2656,4.2604,4.2608,4.2774,4.2777,4.278,4.2807,0,0,0,0,0,0,4.236,4.2374,4.2395,4.2428,4.2441,4.2515,4.2488,4.2491,4.2513,4.2511,4.2547,4.2551,4.256,4.2619,4.263,4.2661,4.2611,4.2771,4.2776,4.2779,4.2803,4.2811,4.2817,0,0,0,0,0,4.2356,4.2399,4.2396,4.2407,4.2468,4.2516,4.2524,4.2533,4.2516,4.2539,4.2557,4.255,4.2651,4.2625,4.2637,4.267,4.277,4.2774,4.2779,4.28,4.2809,4.2817,0,0,0,0,0,0,4.2368,4.2403,4.24,4.2454,4.2483,4.2515,4.2543,4.2541,4.2575,4.2572,4.2582,4.259,4.2647,4.2664,4.2634,4.2735,4.2709,4.2716,4.2721,4.2729,4.2736,4.2731,4.2615,0,0,0,0,0,4.2377,4.2412,4.2441,4.2487,4.2501,4.252,4.2541,4.2546,4.2576,4.2588,4.261,4.2641,4.2681,4.2706,4.2743,4.2807,4.2817,4.2836,4.2843,4.2848,4.2854,4.2896,4.2906,4.2797,4.2797,4.2797,0,0,4.2395,4.2419,4.244,4.249,4.2512,4.2551,4.253,4.257,4.2601,4.2594,4.2649,4.2667,4.2703,4.2764,4.2792,4.278,4.2888,4.2854,4.2858,4.2862,4.2902,4.2912,4.2921,4.28,4.28,4.2799,0,0,4.245,4.247,4.2512,4.2537,4.2571,4.2585,4.2596,4.263,4.2642,4.2697,4.2695,4.2733,4.2798,4.2826,4.2848,4.2922,4.2919,4.2934,4.2969,4.3009,4.3018,4.3025,4.3056,4.3066,4.294,4.294,4.2941,0,4.2469,4.2525,4.2534,4.2577,4.2602,4.26,4.2646,4.2669,4.2715,4.2733,4.2719,4.2807,4.283,4.2901,4.2919,4.2936,4.2952,4.2929,4.3015,4.3023,4.3031,4.306,4.3071,4.2942,4.2942,4.2942,4.2942,0,4.2549,4.259,4.262,4.2666,4.2694,4.2737,4.2757,4.2785,4.2789,4.2806,4.2866,4.2895,4.2941,4.2958,4.2961,4.3032,4.3024,4.3012,4.2987,4.3043,4.3071,4.3081,4.2945,4.2944,4.2944,4.2943,0,0,4.2608,4.2663,4.2675,4.2698,4.274,4.2772,4.282,4.2865,4.2891,4.2924,4.2967,4.3027,4.3019,4.3044,4.3052,4.3087,4.315,4.3073,4.3074,4.3089,4.3235,4.3244,4.3257,4.3149,4.3151,4.3152,4.3233,0,4.2669,4.275,4.2763,4.2835,4.2875,4.2878,4.292,4.2953,4.2971,4.301,4.3032,4.3075,4.3059,4.3076,4.3111,4.3135,4.318,4.3129,4.3192,4.3194,4.3183,4.327,4.3278,4.3353,4.3244,4.3246,4.3247,0,4.2749,4.2786,4.2863,4.2906,4.2923,4.296,4.3006,4.3043,4.3082,4.3094,4.3127,4.3132,4.3186,4.3159,4.3236,4.3201,4.3229,4.3245,4.3249,4.3255,4.3224,4.3282,4.3376,4.3388,4.3263,4.3262,4.3261,0,4.2788,4.2858,4.2915,4.2934,4.2984,4.3011,4.3034,4.3072,4.3101,4.3142,4.3162,4.321,4.3236,4.3275,4.3296,4.3273,4.3373,4.3346,4.3387,4.3387,4.3407,4.3406,4.351,4.3423,4.3423,4.3422,4.3422,0,4.2855,4.2902,4.2934,4.2968,4.3024,4.3041,4.3097,4.3119,4.3155,4.3197,4.3203,4.3243,4.3267,4.3312,4.3329,4.3393,4.3404,4.3418,4.3422,4.3418,4.3417,4.3436,4.3432,4.3425,4.3425,4.3424,4.3424,0,4.2907,4.293,4.2992,4.3036,4.3049,4.3089,4.3128,4.3164,4.3185,4.3239,4.3253,4.3286,4.3341,4.3366,4.3432,4.3444,4.3518,4.3518,4.3504,4.3506,4.3547,4.3544,4.3668,4.3687,4.3586,4.3586,4.3587,0,4.2948,4.2986,4.3035,4.3064,4.3088,4.3133,4.3164,4.3185,4.3217,4.3269,4.3301,4.3355,4.34,4.3487,4.3519,4.3573,4.3575,4.3615,4.3583,4.358,4.3579,4.3577,4.3584,4.3621,4.3622,4.3622,4.3623,0,4.3021,4.3032,4.3074,4.3123,4.316,4.32,4.3239,4.3263,4.3291,4.3328,4.3383,4.3418,4.3489,4.3545,4.3602,4.3629,4.3633,4.3634,4.3647,4.3643,4.3635,4.3644,4.3522,4.363,4.3629,4.3629,4.3629,4.3628,4.307,4.3106,4.3148,4.3197,4.323,4.3268,4.3306,4.3333,4.338,4.3438,4.3449,4.351,4.3556,4.3632,4.3662,4.3713,4.3704,4.3721,4.3726,4.3731,4.3735,4.3627,4.3723,4.3723,4.3723,4.3723,4.3723,0,4.3145,4.3174,4.3219,4.3275,4.3316,4.3316,4.3362,4.3397,4.345,4.3492,4.3537,4.3605,4.3662,4.3701,4.3759,4.3793,4.3797,4.3808,4.3806,4.3813,4.3738,4.3722,4.3804,4.3804,4.3804,4.3804,4.3804,4.3804,4.3189,4.325,4.3268,4.3348,4.3377,4.3436,4.3463,4.35,4.3534,4.361,4.3657,4.3682,4.3725,4.3788,4.3842,4.3852,4.3875,4.3887,4.3897,4.3826,4.3818,4.381,4.3795,4.3891,4.3891,4.3969,4.397,4.397]},{"header":{"parameterUnit":"m.s-1","parameterCategory":1,"la1":30.2991,"la2":30.254,"lo1":-89.0895,"lo2":-89.0444,"dx":0.0017,"dy":0.0017,"nx":28,"ny":28,"refTime":"2023-01-12T15:00:00:Z","depth":0,"parameterNumber":3,"parameterNumberName":"V-component_of_WINDS"},"data":[0,0,0,0,0,0,0,0,0,0,0,0,0,0,0,0,0,0,0,0,0,0,0,0,0,0,0,0,0,0,0,0,0,0,0,0,0,0,0,0,0,0,0,0,0,0,0,0,0,0,0,0,0,0,0,0,0,0,3.3141,3.3143,0,3.3398,3.34,3.3403,3.3447,3.3445,3.3443,3.3441,3.3706,3.3715,3.3724,0,0,0,0,0,0,0,0,0,0,0,0,0,3.2687,3.2695,3.314,3.3144,3.3147,3.3397,3.3401,3.3404,3.3448,3.3445,3.3442,3.344,3.3703,3.3714,3.3725,0,0,0,0,0,0,0,0,0,0,0,0,0,3.2908,3.2698,3.314,3.3199,3.3207,3.3396,3.3401,3.3405,3.3448,3.3445,3.3442,3.3439,3.3699,3.3713,3.3726,3.3876,0,0,3.3768,3.3774,0,0,0,0,0,0,0,0,3.2896,3.2925,3.3187,3.3195,3.3204,3.3387,3.3338,3.3563,3.3449,3.3357,3.3441,3.3437,3.3603,3.3624,3.3679,3.3888,3.39,3.3769,3.3777,3.3783,3.3787,0,0,0,0,0,0,0,3.288,3.2914,3.3242,3.3191,3.3201,3.3212,3.324,3.3381,3.3495,3.3364,3.3368,3.3398,3.3607,3.3666,3.3686,3.3903,3.3769,3.3781,3.3789,3.3794,3.4245,3.4249,0,0,0,0,0,0,3.2854,3.2901,3.3234,3.325,3.3039,3.3223,3.3254,3.3332,3.3493,3.3515,3.34,3.3399,3.3645,3.367,3.3695,3.388,3.3783,3.3796,3.3804,3.4241,3.4246,3.425,0,0,0,0,0,0,3.2844,3.2884,3.3224,3.3077,3.3121,3.3234,3.3321,3.3338,3.3398,3.3521,3.3541,3.344,3.3643,3.3676,3.383,3.389,3.3802,3.3814,3.4237,3.4243,3.4248,3.425,0,0,0,0,0,0,3.2831,3.288,3.2938,3.3078,3.3128,3.3354,3.3325,3.3346,3.3421,3.3422,3.3564,3.3584,3.3643,3.3809,3.3843,3.3907,3.3825,3.4232,3.424,3.4246,3.4245,3.4255,3.4264,0,0,0,0,0,3.2815,3.2929,3.2941,3.2981,3.3203,3.3357,3.3386,3.3451,3.3426,3.3485,3.3563,3.3579,3.3877,3.3825,3.3864,3.3932,3.4229,3.4238,3.4246,3.4241,3.4253,3.4263,0,0,0,0,0,0,3.2795,3.2949,3.2963,3.3126,3.3228,3.3364,3.3441,3.3463,3.3575,3.357,3.3647,3.3679,3.3828,3.3895,3.3834,3.4084,3.4051,3.4068,3.4034,3.4047,3.4056,3.4036,3.3836,0,0,0,0,0,3.2809,3.2921,3.3049,3.3181,3.3231,3.3327,3.3397,3.3438,3.3547,3.359,3.368,3.3786,3.3903,3.3979,3.4094,3.4255,3.4286,3.4321,3.433,3.4337,3.435,3.4439,3.4455,3.4278,3.4278,3.4278,0,0,3.284,3.2938,3.3004,3.3179,3.3263,3.3377,3.3363,3.3485,3.357,3.3609,3.3759,3.3828,3.3951,3.4108,3.4182,3.4169,3.4406,3.4348,3.4352,3.4363,3.4449,3.4466,3.4481,3.4284,3.4283,3.4282,0,0,3.2955,3.3041,3.3158,3.3242,3.3369,3.3432,3.3459,3.3593,3.364,3.3791,3.3822,3.3925,3.4126,3.4211,3.4281,3.4425,3.4443,3.446,3.4508,3.4593,3.4607,3.462,3.467,3.4687,3.4473,3.4473,3.4473,0,3.2978,3.315,3.3216,3.3336,3.3411,3.3451,3.357,3.3648,3.3806,3.3857,3.384,3.4091,3.4177,3.4354,3.4388,3.4444,3.4478,3.4444,3.46,3.4613,3.4626,3.4675,3.4693,3.4474,3.4474,3.4474,3.4474,0,3.3171,3.329,3.337,3.352,3.3604,3.3723,3.3807,3.3884,3.3917,3.3981,3.4134,3.4238,3.4373,3.4418,3.4453,3.46,3.4588,3.4584,3.4553,3.4643,3.469,3.4709,3.4476,3.4476,3.4475,3.4475,0,0,3.3281,3.3465,3.3493,3.356,3.3702,3.3795,3.3915,3.4047,3.4111,3.4218,3.432,3.4488,3.4485,3.4564,3.4608,3.4683,3.4788,3.467,3.4674,3.4687,3.4954,3.4955,3.4976,3.4801,3.4805,3.4808,3.4943,0,3.3411,3.3626,3.3688,3.3869,3.3979,3.4017,3.4121,3.4219,3.4282,3.4384,3.4454,3.4571,3.4559,3.4606,3.4682,3.4759,3.4842,3.475,3.4896,3.49,3.4863,3.5,3.5002,3.5126,3.4962,3.4966,3.4968,0,3.3592,3.3701,3.3893,3.4018,3.4067,3.4159,3.4284,3.4381,3.4492,3.4533,3.4619,3.4656,3.4782,3.4743,3.4917,3.4853,3.4916,3.4962,3.4968,3.4984,3.4939,3.5019,3.5167,3.5185,3.4998,3.4995,3.4993,0,3.3651,3.3846,3.3985,3.4042,3.4193,3.4257,3.4322,3.443,3.4505,3.4613,3.4662,3.4784,3.4851,3.4944,3.5013,3.4979,3.518,3.5148,3.5216,3.5214,3.5257,3.5253,3.5416,3.5299,3.5298,3.5298,3.5298,0,3.379,3.3905,3.4013,3.4099,3.4229,3.4299,3.4425,3.4492,3.4588,3.4686,3.4727,3.4819,3.4904,3.5007,3.5062,3.5196,3.5226,3.5262,3.5275,3.5258,3.5253,3.53,3.5293,3.5303,3.5302,3.5301,3.53,0,3.3877,3.3955,3.4109,3.4238,3.4273,3.4363,3.4473,3.4557,3.4621,3.4745,3.4778,3.4878,3.5001,3.5079,3.5236,3.5272,3.5419,3.543,3.5381,3.5387,3.5451,3.5443,3.5649,3.5679,3.5542,3.5543,3.5544,0,3.396,3.4049,3.4188,3.4256,3.4322,3.4433,3.4508,3.458,3.4657,3.4789,3.4857,3.4982,3.5087,3.5281,3.5368,3.5487,3.55,3.5564,3.5519,3.5498,3.55,3.5493,3.5502,3.5571,3.5573,3.5573,3.5574,0,3.4098,3.4132,3.4239,3.4359,3.4448,3.4546,3.4645,3.4698,3.4787,3.4871,3.4997,3.5077,3.5236,3.536,3.5487,3.5554,3.5579,3.5588,3.561,3.5593,3.556,3.5577,3.54,3.5583,3.5582,3.5581,3.5581,3.558,3.4185,3.4266,3.4375,3.4492,3.4574,3.4664,3.4748,3.4822,3.4928,3.5062,3.5099,3.523,3.5337,3.551,3.5579,3.5682,3.5674,3.5706,3.5714,3.5721,3.5721,3.5544,3.5706,3.5706,3.5706,3.5706,3.5706,0,3.4324,3.4396,3.4503,3.4639,3.4731,3.4745,3.4854,3.493,3.5045,3.5143,3.5243,3.5387,3.5506,3.5601,3.5724,3.5788,3.5802,3.5818,3.5813,3.5828,3.5722,3.569,3.5804,3.5804,3.5804,3.5804,3.5804,3.5804,3.4407,3.4543,3.4589,3.4765,3.4836,3.4964,3.5025,3.5108,3.5186,3.5344,3.5444,3.5505,3.5601,3.5731,3.584,3.5865,3.5908,3.5921,3.5948,3.5847,3.5836,3.5825,3.5796,3.593,3.593,3.6045,3.6046,3.6047]}]]